Home > Weather > Clarksville > Past weeks

Flag for USA Weather for the Past 2 Weeks in Clarksville, Tennessee, USA

Now
56 °F

Passing clouds.


Feels Like: 56 °F
Forecast: 48 / 65 °F
Wind: 3 mph from West

Location: Outlaw Field

Current Time: May 3, 2016 at 9:45:59 PM

Latest Report: May 3, 2016 at 8:52 PM


Visibility: 10 mi

Pressure: 29.93 "Hg

Humidity: 72%

Dew Point: 47 °F

Location of ClarksvilleLocation

Historic Weather in Clarksville — Graph

°F

Clarksville Temperature Yesterday

Maximum temperature yesterday: 65 °F (at 12:52 AM)
Minimum temperature yesterday: 56 °F (at 11:52 AM)
Average temperature yesterday: 59 °F

High & Low Weather Summary for the Past Weeks

 TemperatureHumidityPressure
High83 °F (Apr 26, 3:52 PM)100% (Apr 24, 6:52 AM)30.22 "Hg (Apr 24, 6:52 AM)
Low45 °F (Apr 24, 4:52 AM)30% (Apr 19, 1:52 PM)29.70 "Hg (Apr 27, 3:52 PM)
Average65 °F75%29.94 "Hg
* Reported Apr 18 8:52 PM — May 3 8:52 PM, Clarksville, Weather by CustomWeather, © 2016

Note: Actual official high and low records may vary slightly from our data, if they occured in-between our weather recording intervals... More about our weather records

Advertising

Clarksville Weather History for the Previous 24 Hours

Scroll right to see more
 ConditionsComfort  
Time TempWeatherWind HumidityBarometerVisibility
8:52 PM
Tue, May 3
56 °FPassing clouds.3 mph72%29.93 "Hg10 mi
7:52 PM58 °FOvercast.5 mph67%29.92 "Hg10 mi
6:52 PM60 °FMostly cloudy.7 mph60%29.92 "Hg10 mi
5:52 PM62 °FOvercast.9 mph52%29.92 "Hg10 mi
4:52 PM62 °FOvercast.13 mph54%29.93 "Hg10 mi
3:52 PM63 °FOvercast.13 mph52%29.93 "Hg10 mi
2:52 PM63 °FOvercast.9 mph54%29.95 "Hg10 mi
1:52 PM62 °FOvercast.8 mph58%29.95 "Hg10 mi
12:52 PM62 °FOvercast.8 mph60%29.96 "Hg10 mi
11:52 AM62 °FBroken clouds.8 mph60%29.98 "Hg10 mi
10:52 AM60 °FCloudy.10 mph67%29.99 "Hg10 mi
9:52 AM59 °FOvercast.8 mph72%29.99 "Hg10 mi
8:52 AM58 °FPartly sunny.10 mph75%29.98 "Hg10 mi
7:52 AM55 °FOvercast.7 mph83%29.98 "Hg10 mi
6:52 AM54 °FMore clouds than sun.7 mph83%29.97 "Hg10 mi
5:52 AM53 °FOvercast.6 mph86%29.96 "Hg10 mi
4:52 AM53 °FOvercast.7 mph86%29.95 "Hg10 mi
3:52 AM54 °FOvercast.6 mph83%29.95 "Hg10 mi
2:52 AM55 °FOvercast.3 mph83%29.95 "Hg10 mi
1:52 AM56 °FOvercast.7 mph84%29.95 "Hg10 mi
12:52 AM56 °FOvercast.6 mph81%29.96 "Hg10 mi
11:52 PM
Mon, May 2
57 °FOvercast.8 mph78%29.97 "Hg10 mi
10:52 PM58 °FOvercast.8 mph78%29.99 "Hg10 mi
9:52 PM59 °FOvercast.8 mph81%29.98 "Hg10 mi
Weather by CustomWeather, © 2016

See weather overviewHow to use our weather pages